Total_Precipitation_Accumulation
2.50 3.08 4.29 4.25 3.63 2.96 2.75 2.89 2.95 2.74 2.64 2.61 2.64 2.67 2.74 2.79 2.89 2.90 2.70 2.74 2.76 2.79 2.65 2.42 2.30 2.21 2.28 2.34 2.27 2.05 1.88 1.80 1.96 2.09 2.21 2.34 2.53 2.71 2.87 3.05 2.97 2.30 2.16
1.91 2.71 3.88 3.83 3.24 2.55 2.54 2.55 2.69 2.55 2.43 2.47 2.59 2.54 2.41 2.47 2.63 2.67 2.56 2.70 2.72 2.75 2.56 2.39 2.16 1.95 1.96 1.99 2.05 1.88 1.75 1.96 2.30 2.53 2.83 2.89 2.95 2.96 2.95 3.04 3.10 2.46 2.20
1.56 2.11 2.90 3.34 2.80 2.45 2.39 2.30 2.39 2.34 2.27 2.45 2.59 2.54 2.36 2.33 2.60 2.67 2.62 2.66 2.82 2.77 2.42 2.26 2.00 1.72 1.73 1.79 1.78 1.77 1.84 2.13 2.70 3.13 3.26 2.86 2.49 2.77 2.83 2.93 2.81 2.27 2.13
1.38 1.67 2.09 2.60 2.33 2.18 2.12 2.19 2.26 2.23 2.19 2.32 2.37 2.50 2.46 2.38 2.61 2.78 2.65 2.66 2.84 2.64 2.37 2.14 1.89 1.61 1.54 1.60 1.69 1.79 1.99 2.35 2.80 3.32 3.08 2.54 2.12 2.33 2.47 2.39 2.28 2.07 1.96
1.28 1.48 1.83 2.07 2.04 2.00 1.99 2.19 2.29 2.27 2.18 2.26 2.37 2.50 2.59 2.65 2.69 2.82 2.67 2.70 2.82 2.77 2.48 2.15 1.91 1.64 1.55 1.57 1.59 1.73 2.03 2.47 2.89 2.98 2.39 2.36 2.46 2.37 2.21 2.11 2.12 1.92 1.67
1.29 1.49 1.72 1.90 1.85 1.95 1.95 2.18 2.31 2.36 2.25 2.27 2.41 2.42 2.52 2.74 2.90 3.00 2.87 2.84 2.86 2.74 2.41 2.14 1.90 1.68 1.57 1.57 1.68 1.76 2.10 2.52 2.57 2.09 1.83 1.96 1.87 2.13 2.04 2.00 1.92 1.69 1.40
1.26 1.59 1.71 1.87 1.90 2.06 2.24 2.40 2.40 2.34 2.22 2.23 2.26 2.16 2.30 2.73 3.01 3.13 3.13 3.03 2.95 2.77 2.39 2.11 1.89 1.68 1.59 1.65 1.75 1.78 2.04 2.39 2.12 1.79 1.66 1.81 1.61 1.78 1.94 1.94 1.89 1.61 1.32
1.16 1.51 1.69 1.95 2.01 2.11 2.33 2.64 2.69 2.39 2.28 2.23 2.28 2.17 2.24 2.48 2.86 3.02 3.21 3.24 3.08 2.80 2.34 2.08 1.86 1.66 1.62 1.70 1.79 1.79 1.92 1.94 1.61 1.47 1.45 1.46 1.41 1.55 1.81 1.71 1.66 1.51 1.27
1.24 1.36 1.61 1.88 2.06 2.16 2.34 2.59 2.62 2.57 2.49 2.46 2.48 2.32 2.33 2.50 2.70 2.90 3.26 3.24 3.05 2.83 2.44 2.11 1.89 1.69 1.68 1.69 1.76 1.79 1.90 1.99 1.64 1.55 1.40 1.30 1.25 1.42 1.72 1.57 1.47 1.47 1.37
1.51 1.36 1.45 1.66 2.01 2.13 2.21 2.47 2.66 2.65 2.62 2.60 2.65 2.56 2.72 2.84 2.84 2.90 3.19 3.33 3.09 2.83 2.49 2.32 2.09 1.87 1.85 1.74 1.77 1.93 2.08 1.92 1.64 1.62 1.46 1.08 1.17 1.47 1.77 1.76 1.69 1.70 1.56
1.74 1.70 1.71 1.66 1.75 1.94 2.05 2.35 2.91 2.92 2.82 2.81 2.92 3.06 3.25 3.51 3.45 3.48 3.40 3.54 3.44 3.14 2.97 2.81 2.59 2.24 2.09 1.85 1.97 2.11 1.94 1.82 1.93 1.81 1.48 1.12 1.23 1.76 2.01 2.02 1.93 1.91 1.86
1.88 1.90 2.11 1.92 1.82 1.91 1.95 2.73 3.55 3.41 3.25 3.24 3.35 3.41 3.72 3.87 4.17 3.66 3.96 4.23 4.27 4.11 3.92 3.73 3.58 2.97 2.28 1.91 2.09 2.15 1.87 1.83 1.97 1.73 1.38 1.26 1.42 1.94 2.22 2.09 2.02 1.99 1.96
2.17 2.01 1.97 2.12 2.22 2.25 2.38 2.74 3.21 3.61 3.65 3.61 3.54 3.51 3.75 3.69 3.85 3.86 4.31 5.09 5.18 4.60 4.14 4.25 4.09 3.26 2.80 2.84 2.62 2.34 2.24 1.99 2.00 1.71 1.57 1.54 1.66 2.07 2.38 2.24 2.17 2.10 1.91
2.71 2.67 2.72 2.70 2.75 2.78 2.63 2.58 2.74 3.00 3.06 3.07 3.17 3.23 3.37 3.73 3.88 4.05 4.42 4.52 4.59 4.36 4.51 4.39 4.26 3.70 3.39 3.08 2.79 2.76 2.70 2.42 2.25 2.15 2.13 1.99 2.02 2.27 2.54 2.46 2.30 2.26 2.15
3.19 3.44 4.02 3.98 3.51 3.26 3.01 2.76 2.52 2.77 2.62 2.45 2.64 2.93 3.05 3.28 3.60 3.80 3.72 3.79 3.53 3.69 4.00 4.13 3.76 3.77 3.62 3.52 3.29 3.05 3.02 2.75 2.46 2.37 2.42 2.52 2.41 2.38 2.60 2.71 2.62 2.57 2.57
3.99 4.04 4.28 4.85 4.28 3.68 3.16 2.88 2.70 2.57 2.64 2.51 2.65 2.61 2.87 3.04 3.16 3.26 3.21 3.36 3.22 3.30 3.45 3.47 3.48 3.77 3.76 3.61 3.23 2.93 2.83 2.81 2.64 2.46 2.61 2.67 2.63 2.39 2.49 2.86 3.08 3.07 3.14
4.54 4.69 4.81 5.15 4.90 4.46 3.89 3.30 2.84 2.66 2.52 2.59 2.74 2.54 2.63 2.81 2.87 2.92 3.00 2.99 3.01 2.89 2.95 2.98 3.11 3.40 3.39 3.25 3.01 2.71 2.64 2.71 2.75 2.67 2.54 2.63 2.64 2.64 2.58 2.71 2.99 3.12 3.39
5.21 5.47 5.52 5.27 5.33 5.04 4.46 3.88 3.46 3.21 2.98 2.82 2.66 2.53 2.35 2.45 2.49 2.62 2.58 2.55 2.58 2.50 2.54 2.76 2.84 3.12 3.30 3.30 3.19 2.77 2.74 2.78 2.66 2.75 2.65 2.62 2.95 2.71 2.91 3.03 3.02 3.00 3.40
6.37 6.82 6.59 5.95 5.60 5.19 4.73 4.32 4.18 3.98 3.63 3.23 2.99 2.79 2.62 2.41 2.35 2.44 2.53 2.60 2.29 2.34 2.44 2.31 2.67 2.94 3.26 3.30 2.81 2.78 2.56 2.48 2.50 2.35 2.55 2.47 2.68 2.85 3.10 3.13 3.14 3.03 3.41
6.67 7.39 7.28 6.62 5.85 5.23 4.95 4.65 4.57 4.26 3.85 3.40 3.22 3.09 2.77 2.62 2.40 2.48 2.35 2.23 2.02 2.23 2.56 2.69 3.12 3.13 3.10 3.09 2.54 2.73 2.52 2.17 2.24 2.35 2.32 2.42 2.48 2.34 2.74 3.12 3.33 2.85 3.23
5.69 6.25 6.15 5.54 5.09 4.65 4.23 3.76 3.75 3.61 3.40 3.20 3.00 2.79 2.77 2.69 2.51 2.57 2.37 2.45 2.16 2.24 2.39 2.48 2.77 2.92 2.86 2.85 3.12 3.19 2.75 2.29 2.27 2.19 2.14 2.40 2.42 2.45 2.88 3.37 3.52 3.35 2.94
4.19 4.42 3.93 3.74 3.76 3.49 3.34 3.34 3.28 3.16 2.88 2.74 2.75 2.94 2.60 2.58 2.47 2.31 2.51 2.29 2.22 2.46 2.50 2.58 2.81 2.88 2.81 2.86 3.05 3.40 3.16 3.10 2.64 1.96 2.18 2.34 2.42 2.67 2.73 2.88 3.24 3.52 3.13
2.98 2.95 2.73 2.69 3.01 3.05 3.14 3.21 3.22 3.20 3.02 2.84 2.66 2.80 2.49 2.32 2.35 2.44 2.39 2.43 2.56 2.25 2.49 2.65 2.67 2.79 2.86 2.78 2.76 3.17 3.18 3.17 2.74 2.14 2.01 2.11 2.35 2.66 2.69 2.80 2.63 2.90 3.11
2.08 2.19 2.44 2.53 2.69 2.66 2.83 2.81 2.73 2.52 2.40 2.34 2.31 2.47 2.57 2.35 2.25 2.25 2.37 2.68 2.78 2.48 2.69 2.26 2.39 2.67 2.82 2.71 2.74 2.59 2.52 2.68 2.88 2.76 2.36 2.11 2.22 2.36 2.47 2.49 2.63 2.89 3.05
1.74 2.00 2.34 2.45 2.50 2.43 2.44 2.57 2.77 2.68 2.70 2.57 2.48 2.73 2.79 2.81 2.55 2.23 2.27 2.56 2.72 2.67 2.76 2.60 2.79 2.55 2.44 2.42 2.51 2.58 2.59 2.49 2.31 2.53 2.60 2.42 2.27 2.01 1.97 2.04 2.21 2.39 2.46
1.64 1.77 2.01 2.17 2.36 2.38 2.43 2.55 2.60 2.65 2.82 2.77 2.70 2.59 2.50 2.59 2.53 2.33 2.34 2.66 2.66 2.64 2.76 2.69 2.66 2.48 2.43 2.42 2.35 2.30 2.61 2.62 2.46 2.55 2.35 2.29 2.21 1.78 1.67 1.75 1.83 1.94 2.11